Notices

What's New in latest Release from April 7th, 2021:

- Updated Glossary, including Speed of Maximum Gust, and Total Hourly Precipitation

- Updated national and regional climate services offices contacts and prices information

- Addition of station inventory lists for 1981-2010, 1971-2000, and 1961-1990 Normals.

If you haven't already, please take our survey and provide feedback about our website: https://eccc.sondage-survey.ca/f/LanguageSelection.aspx?s=442ca660-fcf1-47c0-95a9-59707d6fd709

Hourly Data Report for February 22, 2017

TORONTO INTL A
ONTARIO

43°40'36.000" N
79°37'50.000" W
173.40 m
6158731
71624
YYZ

Download Data

Hourly Data (February 2017)
Hourly Data Report for February 22, 2017
TIME
LST
Temp Definition
°C
Dew Point Definition
°C
Rel Hum Definition
%
Precip. Amount Definition
mm

Wind Dir Definition
10's deg

Wind Spd Definition
km/h
Visibility Definition
km
Stn Press Definition
kPa
Hmdx Definition


Wind Chill Definition


Weather Definition


00:00 4.1 2.6 90   11 7 12.9 99.30     LegendNANA
01:00 4.2 2.9 91   14 11 12.9 99.29     Cloudy
02:00 3.3 2.4 94   14 7 12.9 99.26     LegendNANA
03:00 3.2 2.5 95   15 8 4.8 99.25     Fog
04:00 3.4 2.8 96   36 1 0.2 99.20     Fog
05:00 3.1 2.5 96   3 3 0.2 99.22     Fog
06:00 3.5 3.1 97   5 3 0.2 99.24     Fog
07:00 4.1 3.7 97   26 4 0.2 99.23     Fog
08:00 4.8 4.4 97   36 1 0.2 99.20     Fog
09:00 5.3 4.9 97   15 5 0.2 99.17     Fog
10:00 5.3 4.9 97   15 7 0.2 99.13     Fog
11:00 5.4 5.0 97   14 8 0.2 99.11     Fog
12:00 6.5 6.2 98   14 7 0.8 99.07     Fog
13:00 6.6 6.3 98   16 10 3.2 98.98     Fog
14:00 7.1 6.8 98   15 8 8.1 98.90     Fog
15:00 7.6 6.1 90   16 12 8.1 98.87     Fog
16:00 6.2 5.3 94   14 9 4.8 98.82     Fog
17:00 5.0 4.6 97   14 10 1.2 98.76     Fog
18:00 4.8 4.4 97   14 9 6.4 98.74     Fog
19:00 5.0 4.4 96   15 7 8.1 98.74     Fog
20:00 5.0 4.3 95   15 8 8.1 98.72     Fog
21:00 5.5 4.6 94   15 9 9.7 98.70     Fog
22:00 5.7 5.0 95   16 9 9.7 98.67     Fog
23:00 5.3 4.9 97   15 15 8.1 98.57     Fog

Notes on Data Quality.

Legend

  • E = Estimated
  • M = Missing
  • NA = Not Available*
  • [empty] = Indicates an unobserved value
Date modified: